This demonstration page uses our WeatherBlox Daily Observations layout. Learn more.

39.92423, -83.80882

Hourly Observations for December 28, 2018

Temp ( °F °C ) Dew Point ( °F °C ) Humidity (%) Winds ( mph kmh ) Pressure ( in mb ) Visibility ( mi km ) Precip ( " mm )
12:56 am 00:56 Cloudy 51 10.6 49 9.4 92 92 SE 9 15 29.85 1011 10 16.0934 0 0
1:56 am 01:56 Cloudy 54 12.2 52 11.1 93 93 S 12 19 29.84 1011 10 16.0934 0 0
2:56 am 02:56 Cloudy 53 11.7 52 11.1 96 96 S 9 15 29.85 1011 10 16.0934 0 0.0254
3:25 am 03:25 Cloudy with Light Rain 54 12 52 11 94 94 S 9 15 29.83 1010 10 16.0934 0 0.0254
3:56 am 03:56 Cloudy with Light Rain 54 12.2 52 11.1 93 93 S 10 17 29.84 1010 8 12.87472 0 0.0254
4:56 am 04:56 Cloudy 54 12.2 52 11.1 93 93 S 14 22 29.81 1010 10 16.0934 0 0.0254
5:03 am 05:03 Cloudy 54 12 52 11 94 94 SSW 10 17 29.8 1009 10 16.0934 0 0
5:41 am 05:41 Cloudy with Light Rain 54 12 54 12 100 100 SSW 12 19 29.8 1009 4 6.43736 0 0.0254
5:54 am 05:54 Cloudy with Light Rain 54 12 54 12 100 100 SSW 9 15 29.8 1009 2.5 4.02335 0 0.0254
5:56 am 05:56 Cloudy with Light Rain 53 11.7 53 11.7 100 100 SSW 8 13 29.82 1010 2.5 4.02335 0 0.0254
6:03 am 06:03 Cloudy with Light Rain 54 12 54 12 100 100 S 7 11 29.8 1009 5 8.0467 0 0.0254
6:28 am 06:28 Cloudy with Light Rain 54 12 54 12 100 100 SSW 7 11 29.8 1009 2.5 4.02335 0 0.0254
6:47 am 06:47 Cloudy with Light Rain 54 12 54 12 100 100 SSW 6 9 29.83 1010 2 3.21868 0.02 0.508
6:56 am 06:56 Cloudy with Light Rain 52 11.1 52 11.1 100 100 SSW 6 9 29.83 1010 2 3.21868 0.02 0.508
7:11 am 07:11 Cloudy with Light Rain 52 11 52 11 100 100 S 5 7 29.8 1009 2.5 4.02335 0.02 0.508
7:20 am 07:20 Cloudy with Light Rain 52 11 52 11 100 100 S 5 7 29.8 1009 4 6.43736 0.03 0.762
7:56 am 07:56 Cloudy with Mist and Fog 52 11.1 52 11.1 100 100 S 5 7 29.82 1010 3 4.82802 0.03 0.762
8:05 am 08:05 Cloudy with Light Rain 52 11 52 11 100 100 SSW 6 9 29.8 1009 2 3.21868 0 0.0254
8:12 am 08:12 Cloudy with Light Rain 52 11 52 11 100 100 SSW 7 11 29.8 1009 1.75 2.816345 0.01 0.254
8:21 am 08:21 Cloudy with Light Rain 54 12 54 12 100 100 SSW 7 11 29.8 1009 2 3.21868 0.01 0.254
8:36 am 08:36 Cloudy with Light Rain 54 12 54 12 100 100 SSW 10 17 29.8 1009 8 12.87472 0.01 0.254
8:56 am 08:56 Cloudy 53 11.7 53 11.7 100 100 SW 13 20 29.83 1010 10 16.0934 0.01 0.254
9:48 am 09:48 Cloudy with Light Rain 54 12 54 12 100 100 SW 10 17 29.83 1010 2.5 4.02335 0 0.0254
9:56 am 09:56 Cloudy with Light Rain 53 11.7 53 11.7 100 100 SW 12 19 29.83 1010 9 14.48406 0 0.0254
10:08 am 10:08 Cloudy 54 12 54 12 100 100 WSW 15 24 29.83 1010 10 16.0934 0 0.0254
10:56 am 10:56 Cloudy 53 11.7 52 11.1 96 96 WSW 16 26 29.85 1011 10 16.0934 0 0.0254
11:06 am 11:06 Cloudy 54 12 52 11 94 94 SW 13 20 29.83 1010 10 16.0934 0 0
11:56 am 11:56 Cloudy 54 12.2 52 11.1 93 93 SW 10 17 29.82 1010 10 16.0934 0 0
12:56 pm 12:56 Mostly Cloudy 56 13.3 51 10.6 84 84 WSW 18 30 29.79 1009 10 16.0934 0 0
1:56 pm 13:56 Cloudy 56 13.3 51 10.6 84 84 WSW 18 30 29.79 1009 10 16.0934 0 0
2:16 pm 14:16 Mostly Cloudy 55 13 48 9 77 77 WSW 20 31 29.8 1009 10 16.0934 0 0
2:56 pm 14:56 Mostly Cloudy 57 13.9 49 9.4 74 74 WSW 21 33 29.82 1010 10 16.0934 0 0
3:37 pm 15:37 Cloudy 55 13 48 9 77 77 W 20 31 29.83 1010 10 16.0934 0 0
3:56 pm 15:56 Cloudy 53 11.7 47 8.3 80 80 W 21 33 29.85 1011 10 16.0934 0 0
4:51 pm 16:51 Partly Cloudy 48 9 45 7 87 87 W 20 31 29.88 1012 10 16.0934 0 0
4:56 pm 16:56 Partly Cloudy 48 8.9 44 6.7 86 86 W 15 24 29.9 1013 10 16.0934 0 0
5:56 pm 17:56 Clear 43 6.1 38 3.3 82 82 W 17 28 29.94 1014 10 16.0934 0 0
6:26 pm 18:26 Mostly Cloudy 43 6 37 3 81 81 WNW 16 26 29.97 1015 10 16.0934 0 0
6:56 pm 18:56 Cloudy 39 3.9 35 1.7 86 86 WNW 21 33 29.98 1015 10 16.0934 0 0
7:46 pm 19:46 Partly Cloudy 36 2 32 0 87 87 W 17 28 30.06 1018 10 16.0934 0 0
7:56 pm 19:56 Mostly Clear 36 2.2 31 -0.6 82 82 WNW 14 22 30.02 1017 10 16.0934 0 0
8:56 pm 20:56 Clear 34 1.1 30 -1.1 85 85 W 14 22 30.04 1017 10 16.0934 0 0
9:22 pm 21:22 Mostly Cloudy 34 1 30 -1 87 87 W 12 19 30.09 1019 10 16.0934 0 0
9:56 pm 21:56 Cloudy 35 1.7 31 -0.6 85 85 W 17 28 30.06 1018 10 16.0934 0 0
10:56 pm 22:56 Cloudy 34 1.1 30 -1.1 85 85 W 17 28 30.08 1019 10 16.0934 0 0
11:31 pm 23:31 Cloudy 34 1 30 -1 87 87 WNW 14 22 30.15 1021 10 16.0934 0 0
11:56 pm 23:56 Cloudy 33 0.6 30 -1.1 89 89 W 13 20 30.11 1020 10 16.0934 0 0

Powered by AerisWeather